Theta_e
355 354 353 352 352 352 352 352 351 352 351 352 353 354 354 354 354 354 355 356 357 357 357 356 355 356 357 356 355 355 356 355 352 351 351 350 349 350 353 355 357 356 356 356 356 356 356 356 355 355 357 357 358 356 353 354 356 356 355 355 356 354 351 348 340 337 339 339 341 342 338 339 340 340 342 342 343 344 342 341 340 339 339 340 342
355 354 354 353 352 353 353 352 351 352 352 352 353 353 353 353 353 355 354 354 355 356 355 355 354 355 355 356 355 355 356 355 353 353 352 350 349 350 352 355 357 357 357 357 356 356 357 357 356 356 358 358 358 357 356 357 357 356 355 355 355 352 351 349 342 339 341 341 342 343 340 340 339 339 341 341 343 344 342 341 339 338 339 338 340
356 354 353 353 353 353 354 353 353 352 353 352 352 353 352 353 353 354 354 353 353 353 354 353 353 355 355 355 355 355 356 356 354 354 352 350 349 349 352 354 356 357 357 357 356 357 358 358 358 359 358 358 358 356 357 358 357 357 355 355 354 352 351 349 344 341 343 341 343 348 348 346 345 342 341 340 342 343 342 341 339 339 340 339 340
357 354 352 353 354 354 354 355 354 353 354 353 353 353 353 353 354 354 354 353 353 352 353 354 353 354 355 355 355 354 355 355 354 353 352 351 349 350 352 354 356 357 358 358 356 357 359 359 359 361 360 359 358 357 357 356 357 358 356 355 353 352 352 348 342 341 342 342 347 352 349 349 351 347 342 341 341 343 342 341 340 339 338 339 339
357 354 354 353 353 355 355 356 355 354 354 354 354 354 354 354 355 354 354 354 354 353 353 354 354 355 355 355 355 353 353 353 354 353 353 352 350 350 352 354 356 357 358 358 357 358 359 358 355 358 360 359 358 357 354 353 357 359 357 354 352 352 352 348 342 340 341 342 348 352 352 356 356 346 343 346 341 341 343 341 341 340 338 340 339
356 355 354 353 355 356 356 357 356 355 355 355 355 356 355 355 356 355 355 355 355 354 354 354 355 356 356 356 355 354 353 353 353 353 353 353 350 350 352 355 357 358 358 358 357 358 360 360 356 356 359 359 358 356 353 352 357 359 357 354 353 352 352 349 343 339 339 340 344 348 349 353 353 346 350 352 345 340 342 341 341 340 339 339 339
356 356 355 354 355 356 357 357 357 356 356 356 356 356 356 355 357 357 356 356 356 355 355 354 356 356 356 357 356 355 355 353 352 353 353 353 351 350 352 356 358 359 358 357 357 357 359 360 359 358 359 359 358 358 357 357 358 359 357 354 352 352 352 351 346 340 339 340 341 344 343 342 344 347 351 352 351 349 344 341 340 340 341 340 338
356 355 355 355 354 354 356 358 358 357 357 357 357 357 357 356 357 357 357 357 357 356 356 355 357 357 357 357 356 355 354 353 353 353 353 353 353 352 352 355 358 359 358 357 356 357 358 360 361 361 361 359 359 359 359 358 358 358 356 353 352 353 352 351 349 343 341 340 340 342 343 342 341 343 345 345 351 354 349 343 342 340 340 340 339
356 355 356 356 356 356 355 358 358 358 358 358 358 357 357 357 357 358 358 357 357 357 357 356 357 358 358 358 358 357 355 354 354 354 354 354 354 354 352 354 357 358 358 357 356 357 359 360 362 361 360 359 359 360 360 359 359 357 355 353 353 353 353 352 350 346 343 341 339 340 341 343 341 341 343 342 345 352 352 347 343 342 341 340 339
355 355 357 356 357 357 356 358 360 358 359 358 358 358 357 358 358 358 359 358 358 358 358 358 358 358 359 358 359 358 357 356 355 356 357 355 355 355 353 353 356 358 358 357 356 356 358 360 362 362 361 359 359 360 360 359 359 359 356 354 354 354 354 354 350 347 346 342 339 340 342 344 343 342 343 342 342 347 350 346 342 342 343 341 339
354 354 356 356 355 356 354 358 361 358 359 358 357 358 358 359 359 359 360 359 359 359 359 359 358 359 360 359 359 359 358 357 357 358 358 357 357 356 354 353 355 358 359 359 357 356 358 360 361 362 362 360 359 359 359 358 359 360 358 355 355 355 355 354 350 348 347 344 342 341 342 344 345 345 344 342 342 344 347 347 342 341 342 341 339
353 354 357 357 357 359 358 359 360 359 359 359 358 359 359 360 360 360 361 361 360 359 359 360 359 360 360 360 360 360 359 358 358 359 358 358 358 357 356 355 355 357 360 361 359 358 359 360 360 361 362 361 361 360 359 359 359 359 358 356 356 355 355 354 352 350 346 344 345 345 343 344 345 344 342 341 342 343 346 347 343 342 345 342 339
351 354 355 357 360 362 360 358 360 361 360 360 359 359 361 361 361 361 362 362 361 360 360 360 360 360 361 361 360 360 360 359 358 358 358 358 358 358 358 358 357 357 360 361 360 359 359 360 360 360 361 361 361 360 360 360 359 358 357 357 356 356 356 355 353 351 348 344 345 346 344 343 344 342 340 341 342 340 343 347 344 342 345 343 340
351 353 352 354 358 359 358 358 360 362 361 361 360 361 362 363 363 362 362 362 362 361 361 361 361 361 361 361 360 361 360 360 359 357 357 358 359 360 359 360 360 359 359 360 360 358 358 358 359 359 360 359 359 360 361 360 359 358 357 357 357 357 357 356 353 351 349 346 345 345 344 343 343 342 340 341 341 340 341 345 346 345 343 340 341
350 352 353 354 357 358 358 358 361 363 362 361 361 361 363 364 364 364 363 363 362 362 362 362 362 361 361 361 360 361 360 360 359 357 355 357 359 361 360 360 361 361 360 360 359 358 357 357 357 358 359 358 358 359 360 361 360 359 358 357 357 357 357 357 355 353 351 348 346 345 343 343 343 342 342 340 340 342 341 340 344 350 350 345 342
350 352 354 356 359 360 359 359 362 364 362 361 361 361 362 364 365 365 364 363 362 362 363 362 362 362 361 361 360 360 360 360 360 358 356 356 357 360 362 361 361 361 361 360 359 358 357 357 357 358 359 359 358 358 359 361 361 360 359 358 358 358 357 357 356 354 352 350 349 347 344 344 344 343 342 342 340 340 341 340 340 346 352 354 349
352 352 355 356 358 358 358 359 360 363 362 362 362 362 363 364 365 366 365 365 363 363 363 363 363 362 362 361 360 360 361 360 360 359 357 356 356 359 362 362 361 361 361 361 359 358 357 357 358 359 360 360 359 359 359 361 362 360 359 359 358 358 357 357 357 355 352 350 350 349 346 344 345 344 343 342 341 339 340 343 342 341 346 354 355
352 355 355 355 354 355 358 358 359 364 364 363 364 363 363 364 365 366 367 367 365 363 363 363 363 363 362 361 360 360 361 360 359 359 357 356 356 358 360 362 362 361 360 360 360 359 358 358 358 359 360 361 361 360 360 360 361 361 361 360 359 358 358 357 357 356 352 350 351 350 348 345 344 345 343 342 342 341 341 342 344 342 341 347 351
352 354 353 354 354 356 360 359 360 365 364 363 363 363 363 365 366 367 367 368 367 365 365 365 364 365 363 362 361 360 360 360 359 358 357 357 357 358 359 361 363 362 359 358 360 361 359 358 357 359 361 362 362 361 361 361 361 360 360 360 360 359 358 357 357 356 353 352 351 351 350 346 344 345 344 343 343 343 343 342 343 344 342 343 344
351 351 351 351 350 352 359 361 362 363 365 364 362 361 363 365 367 368 369 369 368 367 365 366 366 366 364 362 361 360 359 360 359 359 359 357 357 358 359 360 362 363 361 357 358 361 361 359 358 359 361 363 363 362 361 362 361 359 359 360 361 360 359 358 357 356 354 353 352 351 350 348 346 345 345 345 345 344 343 343 343 344 343 343 342
350 350 350 350 350 353 357 362 360 360 364 364 362 362 362 364 368 369 370 370 369 368 366 366 367 366 364 363 363 361 360 360 360 359 360 359 358 358 358 360 360 361 362 360 357 358 361 362 360 360 361 363 363 362 361 362 362 360 360 360 360 360 360 360 358 357 356 354 353 352 351 350 348 346 345 346 346 345 345 344 344 344 343 344 344
347 346 345 349 353 353 353 357 357 356 362 364 362 363 362 364 368 369 370 370 369 369 367 367 368 366 363 364 364 363 360 360 360 360 360 360 361 360 359 360 361 360 361 361 358 357 359 363 363 361 361 362 363 362 361 362 362 361 360 360 360 360 360 360 359 359 357 355 353 353 352 352 350 349 347 346 346 344 345 346 344 344 344 344 344
343 343 343 347 350 351 352 355 354 354 360 364 364 363 363 365 367 367 369 370 369 369 368 367 367 365 364 364 364 363 362 361 361 362 361 360 361 362 359 360 362 362 362 361 360 358 358 361 363 363 362 362 362 362 360 361 362 362 361 360 360 360 360 361 360 360 358 355 354 354 353 352 351 351 349 347 346 345 345 347 345 343 344 345 345
346 346 349 351 351 355 357 357 356 358 363 366 364 364 363 364 365 366 368 369 369 369 368 367 367 365 365 364 364 364 364 364 364 364 363 361 362 362 361 360 361 363 363 361 361 361 359 359 361 363 364 362 361 361 361 361 361 362 361 361 361 360 360 360 360 361 360 357 355 354 354 353 351 351 350 349 347 345 344 346 346 344 344 344 345
350 351 355 355 355 360 363 361 362 364 365 366 365 365 364 363 365 366 367 368 369 368 368 367 367 366 365 364 364 365 365 365 364 363 363 362 362 362 362 362 362 363 363 362 361 361 361 360 360 362 364 363 362 361 361 361 361 362 362 361 361 360 360 360 360 361 361 358 356 355 354 354 352 351 352 350 348 345 344 346 346 344 344 344 345
355 356 358 357 359 363 364 367 369 367 365 366 365 365 365 363 365 365 365 367 367 367 368 367 368 367 365 366 365 364 364 365 364 362 362 362 361 362 363 365 364 362 362 362 361 361 362 362 361 361 363 364 362 362 362 361 361 362 362 362 362 361 360 361 361 361 361 360 358 356 355 354 354 352 352 351 349 345 343 346 346 345 344 344 344
358 360 363 365 367 369 369 370 371 366 363 365 366 365 365 365 364 364 364 364 365 366 366 366 368 368 366 366 366 363 362 363 363 361 360 361 361 361 363 364 365 364 362 361 361 361 361 363 362 361 361 363 363 362 362 361 362 362 363 362 363 362 361 361 361 361 361 360 359 357 355 355 354 354 352 351 350 347 343 344 346 346 345 345 345
359 364 370 371 371 378 380 374 370 366 363 364 364 365 366 366 365 364 363 363 364 365 365 366 368 368 367 365 365 364 362 361 362 361 360 360 360 360 361 362 364 365 363 361 362 362 361 362 363 363 362 362 363 363 362 362 362 362 363 363 363 363 362 362 362 361 361 361 359 358 357 356 355 354 353 351 350 348 345 344 345 346 346 346 346
356 364 371 371 371 382 387 379 371 367 364 363 363 364 366 366 364 365 363 362 363 364 364 365 367 368 368 366 365 365 362 361 361 361 360 359 359 360 360 360 363 364 364 361 361 362 363 362 363 364 364 363 363 363 363 363 362 362 363 363 363 363 363 363 362 361 361 361 360 358 358 357 356 355 353 351 350 349 346 343 344 346 347 347 347
351 358 366 372 376 383 388 385 379 371 366 364 362 364 366 365 364 364 364 363 362 363 364 363 365 368 368 366 366 365 363 362 361 361 361 360 359 360 360 360 361 362 363 363 361 361 363 364 364 364 365 365 364 364 363 362 362 362 362 362 362 362 363 363 363 362 362 362 361 359 359 358 358 357 355 353 350 350 348 344 342 345 346 347 348
351 358 363 369 375 379 384 386 382 375 369 364 363 363 364 363 363 363 363 363 362 364 364 363 364 367 368 367 366 365 365 363 361 361 362 360 360 360 361 360 360 360 362 363 362 361 361 364 365 366 367 367 366 364 364 363 362 361 360 361 361 362 364 363 362 362 362 362 361 360 359 359 359 358 357 355 352 350 350 347 343 342 343 345 347
352 362 368 367 367 373 377 376 372 370 367 364 365 362 361 361 361 362 362 362 362 363 365 364 364 366 367 368 367 367 366 365 364 363 362 362 362 361 361 361 360 360 361 362 363 362 361 362 365 367 368 368 367 366 364 365 364 362 361 360 360 361 363 364 363 362 362 362 362 361 360 360 359 358 358 357 354 351 350 349 346 343 342 343 344
344 356 362 360 359 366 370 367 364 364 363 362 362 362 361 361 359 360 361 361 360 361 364 366 365 365 368 369 368 368 367 367 366 364 363 364 363 362 362 362 361 360 360 362 363 363 362 361 363 366 367 368 368 368 366 366 366 364 362 361 360 360 362 363 363 363 361 361 361 361 361 360 359 358 358 357 356 353 351 350 348 345 343 343 343
338 339 348 358 365 368 366 362 360 361 359 359 358 359 361 360 358 359 360 360 360 360 362 365 366 366 368 369 369 369 369 368 368 366 365 365 365 364 363 362 362 362 361 362 364 364 364 362 362 364 367 368 368 368 368 367 366 365 364 362 361 360 361 361 362 363 362 361 360 361 361 360 359 358 358 357 356 354 352 351 349 347 345 344 343
339 345 357 367 371 366 361 357 354 353 353 353 356 358 359 358 358 359 359 359 360 359 360 365 367 366 368 370 370 370 370 369 369 369 368 366 366 366 365 363 363 363 362 362 363 364 364 364 363 363 365 367 367 367 368 368 367 366 365 363 362 361 361 361 362 362 362 361 360 360 360 360 359 358 357 357 356 355 352 351 349 348 347 346 345
350 361 368 370 365 359 360 360 358 354 350 347 349 352 356 357 357 357 358 360 362 361 360 364 368 367 367 370 371 371 371 371 370 370 370 368 368 367 367 366 364 363 363 362 363 364 365 364 365 364 364 365 366 366 367 368 367 367 366 365 363 362 362 362 362 362 362 362 361 361 360 360 359 358 358 358 357 355 353 351 350 348 347 347 346
355 360 365 368 366 365 365 364 361 358 354 350 348 347 349 354 356 356 358 359 362 364 363 363 367 368 367 369 371 371 372 371 371 372 372 370 369 369 369 368 366 364 365 364 364 364 364 364 365 365 365 364 364 365 366 366 367 367 366 366 364 363 362 362 361 362 362 363 363 362 361 360 360 358 358 357 358 356 354 352 351 349 348 347 347
354 359 363 366 365 363 362 361 360 357 356 355 354 353 353 357 358 357 358 359 362 365 364 364 367 368 367 369 370 371 373 373 373 374 374 372 371 370 370 369 367 366 365 365 365 364 364 364 365 366 367 366 364 365 365 365 366 367 367 366 365 364 363 363 362 361 362 363 363 362 362 361 360 359 358 358 358 357 355 353 352 350 349 348 347
355 360 361 360 360 361 362 364 364 367 366 362 360 359 360 362 362 359 359 361 361 363 364 365 367 369 368 368 369 371 373 374 374 375 375 374 372 371 371 370 369 367 365 364 365 366 365 366 365 366 367 367 366 365 364 365 366 366 367 366 365 364 364 364 363 362 361 362 362 362 362 361 361 361 359 359 358 357 356 354 353 351 350 349 348
354 358 358 358 360 364 367 366 366 369 369 366 365 366 364 364 364 362 360 361 362 361 362 363 366 367 368 368 369 371 373 375 375 375 375 374 372 371 371 371 370 368 366 365 365 366 367 367 367 367 367 367 367 367 365 366 366 365 365 365 364 364 364 364 364 363 363 363 362 362 363 362 362 362 361 360 359 358 356 355 354 353 351 350 349
352 355 359 359 360 364 366 365 365 366 367 367 367 366 365 365 364 363 361 360 360 361 361 362 363 365 368 370 368 370 374 375 375 375 375 374 373 372 371 371 371 370 368 367 366 365 367 368 368 368 367 367 366 366 366 366 365 364 363 363 363 364 364 364 365 364 364 364 363 363 363 363 363 362 361 361 361 359 357 356 355 354 352 351 350
352 355 359 358 358 363 364 362 363 364 366 370 371 368 366 365 365 364 362 359 360 362 362 363 363 363 366 370 371 371 374 375 375 376 375 374 373 373 371 372 371 371 370 369 368 367 366 367 367 367 367 367 366 366 366 366 365 364 363 362 362 363 364 364 365 364 364 364 363 363 363 363 363 363 362 362 362 361 359 356 355 355 353 352 350
353 355 358 357 358 362 363 362 364 364 363 368 373 373 367 363 364 364 361 358 360 364 363 364 365 364 364 368 372 373 373 375 375 376 376 375 374 373 373 372 372 371 372 371 371 370 368 368 367 367 368 367 367 367 366 365 365 364 363 363 362 362 363 364 364 364 364 364 363 363 362 362 362 362 362 362 362 362 360 357 356 355 354 353 351
353 355 356 356 358 362 362 361 363 363 363 367 372 373 367 366 370 371 367 363 361 363 365 366 366 366 365 367 371 374 374 374 375 375 375 376 374 373 373 373 372 372 372 372 372 372 370 370 369 368 368 367 367 367 367 366 365 364 363 363 362 362 362 362 363 364 364 363 364 363 362 361 361 361 361 361 361 362 361 359 357 356 355 353 351
353 355 357 356 358 360 359 359 360 361 362 365 368 371 372 373 373 372 372 371 367 364 367 368 367 369 368 367 370 373 373 374 374 375 375 376 374 373 373 373 373 373 372 373 373 372 372 371 370 369 368 367 366 366 367 367 366 365 364 363 363 362 362 361 361 362 362 362 363 362 362 361 361 360 360 360 360 361 360 360 358 356 354 353 352
353 355 356 355 357 359 357 357 359 359 361 362 364 367 369 369 369 369 371 372 370 368 369 368 368 369 369 368 369 371 372 373 372 372 373 374 373 373 373 373 374 373 372 372 372 371 371 371 370 369 368 367 366 365 365 366 367 366 365 364 363 362 361 361 360 361 361 361 362 362 361 361 360 360 360 360 360 360 359 360 359 357 354 352 351
354 355 355 355 358 358 357 357 358 359 360 361 362 363 364 365 366 367 368 370 371 370 370 371 371 370 370 370 369 370 372 372 371 371 372 372 372 372 372 372 372 371 371 371 370 370 369 368 368 368 368 367 367 366 365 365 366 366 364 363 361 360 360 359 358 357 359 359 360 361 361 360 360 359 358 358 358 359 358 357 356 354 352 351 351
354 354 354 355 356 357 357 357 358 358 358 359 361 362 362 363 364 365 365 367 369 368 369 369 369 369 370 370 369 369 371 370 371 371 370 370 371 370 370 370 370 369 369 368 368 368 368 367 366 366 366 367 367 366 364 362 360 360 360 358 357 357 356 357 357 358 359 358 357 358 358 359 358 356 355 355 355 356 355 352 350 349 348 349 350
353 354 353 353 354 355 356 356 356 356 357 357 358 359 359 361 363 364 365 366 366 367 367 367 367 367 368 368 368 368 368 368 370 370 368 368 368 367 368 368 367 367 366 366 367 367 366 365 366 365 366 368 367 363 358 354 354 356 356 355 354 353 352 352 354 355 355 353 352 353 354 355 355 352 350 350 350 351 349 347 345 345 345 347 349
353 351 351 351 352 353 354 353 354 356 356 357 357 357 358 359 361 364 366 366 366 366 367 367 367 367 367 367 367 368 367 366 368 369 368 368 367 367 367 367 364 363 363 362 363 363 361 362 362 361 360 360 358 354 352 352 353 353 353 352 352 351 351 351 352 353 350 346 346 349 352 353 353 351 349 348 348 347 346 344 343 343 343 344 346
352 351 352 351 350 351 352 351 353 355 355 355 355 354 354 356 358 361 363 364 366 368 369 369 368 365 365 366 367 368 368 366 366 367 368 367 368 365 363 362 361 360 359 358 357 356 355 355 354 353 351 350 349 347 347 349 349 349 348 348 347 346 347 348 350 352 349 344 343 346 350 353 354 352 349 349 349 348 348 346 344 342 342 342 344
Wind_Speed
17 21 24 25 25 26 26 26 28 28 27 28 30 31 29 28 29 27 27 29 27 25 24 23 22 20 19 18 17 17 17 16 16 15 14 14 14 15 15 14 14 14 14 14 13 12 11 10 9 8 9 9 8 7 6 5 4 4 4 3 2 1 1 1 0 4 8 5 4 6 5 3 5 6 5 7 7 5 6 5 6 8 9 8 9
17 19 21 25 25 26 26 26 28 28 29 29 30 32 31 29 29 29 28 30 30 28 26 24 23 21 20 19 17 17 17 17 16 15 14 14 15 16 16 15 14 15 15 15 14 13 13 12 11 11 11 10 10 8 6 5 5 4 4 4 4 3 3 2 4 5 6 8 6 5 5 3 4 4 4 7 8 6 6 4 5 11 11 7 8
17 18 19 24 25 26 25 25 28 29 29 29 29 31 31 28 29 30 29 29 30 29 28 26 23 22 20 19 18 16 17 17 16 15 14 13 15 16 17 17 16 16 15 16 15 14 15 14 12 11 11 11 10 8 8 7 6 5 5 5 4 5 4 2 4 5 3 8 7 4 4 3 3 2 5 7 8 7 6 4 5 10 11 8 7
17 18 19 21 24 26 25 25 27 28 29 30 30 31 31 29 29 32 30 29 30 29 28 26 23 22 19 18 18 16 16 17 16 15 15 14 15 17 17 17 17 17 16 16 16 15 16 16 14 12 12 11 10 10 10 8 7 7 7 7 6 6 5 4 3 3 3 8 4 1 3 4 2 4 6 7 9 7 6 6 5 6 7 7 8
19 20 19 20 21 24 26 26 27 29 29 31 32 31 32 31 30 32 31 29 30 30 28 26 24 22 20 18 19 18 16 18 18 17 17 17 17 18 19 18 18 17 17 17 17 16 16 17 16 14 13 12 12 11 10 9 8 8 8 8 8 7 5 6 4 3 3 3 1 1 2 2 1 6 7 4 6 8 7 7 6 5 5 4 6
18 19 19 19 19 20 24 26 28 30 31 32 33 32 32 32 31 32 32 29 30 31 30 28 25 24 23 20 20 19 18 19 21 19 18 19 18 18 20 20 19 18 18 18 17 17 17 17 16 15 15 14 13 12 10 9 9 8 9 10 9 7 4 6 7 6 4 3 1 1 1 0 2 6 5 1 1 5 7 9 6 6 7 3 4
17 17 19 19 20 21 24 29 30 31 32 32 33 32 32 33 32 32 33 30 29 31 32 30 27 25 25 23 21 21 20 19 20 20 18 19 19 18 20 21 20 19 19 19 18 18 18 18 17 16 16 15 13 12 10 9 9 9 10 10 9 8 6 6 7 8 6 4 4 3 3 2 1 3 5 2 1 1 2 7 8 7 8 7 6
17 18 19 19 21 23 26 31 33 32 33 32 33 33 34 35 35 33 33 32 30 31 33 32 28 27 26 24 22 22 22 19 19 20 18 18 19 19 20 21 22 21 20 20 20 20 19 19 19 18 17 15 14 14 12 10 10 10 10 10 9 9 8 7 6 9 9 6 6 6 5 3 1 2 6 5 3 1 1 4 8 10 10 10 9
18 19 18 16 19 26 30 33 34 33 33 34 34 35 35 36 36 35 34 33 32 32 34 33 30 29 27 25 23 22 22 21 19 19 19 19 19 20 20 22 23 23 22 21 21 21 20 20 20 20 18 16 14 14 13 12 12 11 11 12 11 10 10 9 6 7 10 8 9 9 6 4 4 3 5 4 3 3 2 4 6 8 8 10 10
18 19 18 15 16 23 28 30 32 32 33 35 35 35 35 36 37 36 34 34 34 33 35 35 32 30 29 27 25 23 22 21 20 20 21 20 20 21 22 22 24 25 23 22 22 22 22 21 20 20 20 17 15 14 13 13 13 13 13 13 13 11 11 11 9 7 8 8 12 13 8 5 6 7 7 8 6 2 1 4 8 9 7 8 8
17 19 18 17 17 20 23 25 28 31 32 33 33 34 35 35 37 38 36 35 35 35 35 36 34 31 30 29 27 25 23 22 22 21 22 23 21 20 22 22 22 24 23 23 23 23 23 22 20 20 20 18 18 16 15 14 14 14 14 13 14 13 12 12 10 9 9 8 9 13 11 7 6 7 8 9 7 4 4 4 6 9 9 10 10
16 16 16 18 18 18 21 24 28 31 32 33 34 34 35 36 38 39 37 36 36 36 36 36 35 32 31 30 29 27 25 24 23 22 23 24 23 20 21 21 21 21 22 23 23 23 24 24 22 20 19 19 19 18 16 14 14 15 15 15 15 14 13 13 12 11 9 9 9 11 11 10 9 9 10 9 6 6 6 3 1 4 6 11 12
16 15 14 15 14 12 15 22 29 33 33 35 36 36 36 37 40 40 39 38 37 37 37 36 36 34 32 31 30 29 27 26 25 24 23 23 23 22 21 22 22 21 22 23 24 23 24 25 24 22 21 20 20 19 18 16 14 15 16 16 16 16 15 14 15 13 11 12 12 11 11 12 12 11 11 10 8 6 2 2 3 5 5 9 12
16 15 14 14 14 13 15 22 30 33 34 37 37 37 37 37 40 42 41 41 39 38 38 38 37 36 34 32 31 30 29 27 26 25 24 23 23 24 23 23 24 24 23 24 24 24 24 26 26 24 22 21 21 20 19 18 16 15 16 16 16 17 16 15 16 15 13 13 14 12 12 12 13 12 10 9 10 9 6 5 5 4 4 7 10
15 15 16 15 14 15 18 25 30 33 34 36 36 36 36 37 40 42 42 42 40 38 39 38 38 36 35 33 32 31 31 29 28 27 27 26 24 24 25 24 24 25 25 24 23 24 25 26 26 26 24 22 22 22 21 19 18 17 17 17 17 17 17 17 17 16 14 15 15 15 14 12 12 12 12 10 10 10 11 11 8 3 2 3 6
16 15 15 14 13 12 14 20 28 33 34 34 35 35 36 36 39 42 42 43 42 40 40 39 38 37 36 35 34 32 32 30 30 29 29 28 27 25 26 26 25 24 25 25 24 24 26 26 26 26 25 24 23 23 23 21 20 19 18 18 18 17 18 18 18 17 16 16 16 16 16 15 12 12 12 12 12 11 11 13 13 8 3 2 3
19 17 16 16 13 13 16 23 30 35 35 36 37 37 37 36 37 39 40 41 43 42 41 40 39 39 38 38 36 34 33 32 32 31 30 30 29 28 27 27 26 24 24 25 25 25 26 27 27 26 25 25 24 24 24 22 21 21 20 20 19 18 19 20 19 19 17 17 17 18 18 18 15 11 12 12 12 12 9 8 11 12 8 5 2
20 20 19 20 19 19 26 33 37 39 37 36 36 35 36 35 36 38 38 39 41 41 41 41 41 40 39 40 39 37 35 33 32 32 32 31 30 29 28 26 27 26 24 23 24 26 26 26 27 26 25 26 25 24 25 24 22 22 21 21 21 20 20 21 21 20 19 18 18 19 19 20 18 12 12 13 12 12 12 8 7 10 11 9 4
18 20 17 18 18 20 27 34 37 37 37 35 35 34 34 34 35 37 38 38 39 39 39 40 40 39 38 40 41 39 37 35 33 32 33 32 31 30 30 27 27 27 27 25 24 26 27 27 27 26 26 26 25 25 25 25 24 24 22 21 22 21 21 22 23 22 20 19 19 19 20 21 20 15 13 14 12 12 15 13 9 10 12 12 10
16 18 17 18 19 21 28 32 32 33 34 34 35 36 35 35 35 36 37 37 37 37 37 37 38 37 38 40 41 40 38 36 34 33 33 33 32 31 31 30 28 27 28 28 26 25 27 28 27 27 26 26 26 26 26 26 26 25 24 22 22 23 23 23 23 23 21 21 21 21 21 22 22 18 16 16 14 13 15 16 14 13 13 13 13
15 17 18 20 20 21 25 27 26 27 31 33 34 36 36 35 35 36 37 37 37 37 36 37 37 37 38 39 39 39 39 36 35 34 33 33 33 33 32 31 30 29 28 29 29 27 26 27 28 27 27 26 27 27 27 27 28 28 27 24 23 24 25 24 24 24 23 22 22 23 22 22 23 22 19 18 17 15 15 17 17 16 15 15 15
16 18 18 18 17 16 18 20 19 22 29 33 34 34 36 36 36 36 36 37 37 36 36 37 37 37 37 37 37 38 39 38 36 35 35 33 33 34 33 31 30 31 30 30 31 30 28 28 28 29 29 28 28 29 28 28 29 29 29 27 25 25 26 26 25 25 25 24 23 25 24 23 23 24 23 21 20 18 17 18 19 18 18 17 17
18 19 18 16 15 14 16 19 21 26 30 32 33 34 36 36 36 36 36 37 37 36 36 37 37 36 36 37 36 36 38 38 36 35 35 34 33 33 34 32 31 30 31 31 30 31 31 30 29 29 30 30 30 30 30 29 30 30 30 29 27 27 28 28 27 27 27 26 25 25 26 25 23 24 24 23 22 21 20 20 20 20 20 18 19
18 17 14 14 15 13 13 15 19 26 28 30 32 33 34 35 35 36 36 37 37 36 36 36 36 34 35 36 36 35 36 36 36 34 34 34 32 32 32 33 32 30 30 31 31 31 32 32 31 31 31 32 31 31 31 31 30 31 31 30 29 28 29 30 29 29 29 28 27 27 27 27 25 25 25 25 24 23 23 23 22 22 22 20 19
14 14 13 15 15 13 12 12 14 21 25 27 30 31 32 34 35 34 35 35 36 36 35 35 35 35 35 36 36 35 35 35 35 34 33 34 32 31 31 32 33 31 30 31 32 32 32 34 34 33 33 33 33 32 32 32 31 31 32 32 30 30 30 30 31 30 30 30 29 28 28 28 27 26 26 26 26 25 25 24 24 24 23 23 21
13 13 14 16 15 13 13 11 12 19 23 24 27 30 31 32 33 33 33 34 35 35 34 34 35 35 35 36 36 36 35 35 36 34 33 34 33 31 31 31 33 33 32 31 33 34 34 35 35 35 34 34 34 34 34 34 33 31 32 32 31 31 31 31 32 32 31 31 31 30 29 29 29 29 28 28 28 28 27 26 26 26 25 24 23
11 10 11 13 12 12 14 12 13 20 24 23 26 30 29 29 31 32 31 32 34 34 34 34 34 34 35 35 36 37 37 36 36 36 35 34 34 33 32 32 32 33 33 32 33 35 36 36 36 37 36 36 36 35 35 35 34 32 32 32 32 31 31 32 32 33 32 32 32 31 30 30 31 31 31 30 30 30 30 28 28 27 26 26 25
9 10 10 10 9 9 12 13 14 20 23 23 25 29 28 27 29 31 31 31 32 33 34 34 34 34 35 36 36 38 39 39 38 38 37 35 35 35 34 33 33 33 33 33 33 35 36 36 36 37 38 37 37 37 36 36 36 35 33 33 33 32 32 32 33 33 33 33 33 33 32 33 34 35 34 33 33 33 32 31 30 29 28 27 27
8 8 8 8 7 7 9 11 13 17 20 21 23 25 26 26 27 30 31 31 31 33 34 34 35 35 35 37 37 37 39 40 39 38 39 38 37 36 35 34 34 34 34 33 32 33 34 36 36 36 37 37 37 38 38 38 38 37 36 34 34 34 33 32 33 33 34 34 34 34 34 35 36 37 38 37 36 36 35 34 33 31 30 29 28
11 8 7 6 6 7 8 9 9 11 16 19 20 21 24 26 26 28 30 30 30 32 34 34 34 36 35 35 36 36 36 38 39 39 39 39 38 36 36 36 35 35 34 34 33 32 32 34 35 36 36 37 37 37 39 40 41 40 38 36 34 34 34 34 33 33 34 35 35 35 35 36 37 38 40 40 40 39 38 37 36 35 34 32 30
14 10 9 7 6 6 6 8 8 9 13 17 18 19 22 25 26 27 28 29 28 29 33 34 33 33 34 35 36 36 35 37 38 38 38 39 39 37 36 36 36 35 35 35 35 34 33 32 33 34 35 36 37 38 39 42 43 43 41 38 36 35 35 36 35 35 35 36 36 36 36 36 38 40 41 42 42 41 40 38 38 37 38 37 34
10 9 10 10 10 9 8 9 11 12 14 16 17 19 21 23 25 26 27 28 29 28 30 33 32 31 33 35 35 35 35 35 37 37 37 38 39 38 37 36 37 36 35 35 35 36 35 33 32 33 34 35 37 38 40 42 44 46 45 42 38 36 36 36 37 37 36 36 36 37 37 36 38 40 42 42 42 43 41 39 39 38 39 39 39
5 7 10 11 11 12 12 12 13 15 16 17 18 19 20 21 22 24 26 28 29 28 28 32 33 32 33 35 34 34 35 34 35 37 37 36 37 38 38 37 36 36 35 35 36 37 36 36 34 34 35 35 35 37 40 42 44 46 47 44 40 38 37 37 37 38 38 37 37 37 37 36 36 38 40 42 43 43 43 41 40 39 39 40 40
3 2 5 6 5 8 10 9 12 16 18 20 21 20 20 21 21 22 25 26 28 28 26 29 34 33 32 34 34 34 34 34 34 35 36 36 36 37 37 36 34 34 35 35 36 36 37 38 38 36 36 36 36 36 38 41 44 46 47 47 44 40 38 38 38 38 38 39 39 38 37 37 36 35 39 41 43 45 45 44 42 41 41 41 41
3 2 5 8 7 5 4 3 2 2 5 12 19 21 20 21 21 21 23 24 26 27 26 25 31 34 32 33 34 33 32 33 32 33 34 35 35 35 34 33 32 33 35 36 36 36 37 38 39 37 36 35 35 35 37 40 43 44 47 49 47 42 39 38 38 39 39 40 40 40 39 38 37 36 38 40 42 44 46 46 45 44 43 42 42
4 8 9 8 8 7 6 6 7 6 6 5 11 16 18 20 21 21 23 23 23 26 26 25 28 32 32 31 32 32 31 31 31 31 33 33 33 33 32 32 32 31 32 34 35 35 35 36 36 37 36 36 35 35 36 39 42 43 45 48 49 45 41 39 38 38 40 40 40 40 39 39 39 38 39 41 42 43 45 46 46 45 44 42 42
11 11 11 11 10 9 8 7 7 6 6 8 8 11 13 17 21 21 21 22 22 24 26 25 25 29 31 31 31 31 30 30 30 30 31 32 31 31 31 31 31 29 29 30 32 33 34 34 34 36 37 38 36 34 36 38 40 43 45 48 50 47 43 42 41 39 39 40 40 41 40 39 40 40 40 41 42 43 44 45 46 45 42 40 38
11 11 12 13 11 8 8 7 8 7 8 9 10 11 11 8 16 22 21 21 22 23 24 24 24 26 30 30 30 30 29 29 30 29 28 29 29 29 29 30 30 29 28 28 28 30 32 32 33 35 37 38 37 35 36 38 39 41 45 48 50 47 43 43 42 39 38 38 39 41 42 42 41 41 41 41 42 44 45 45 45 43 40 39 39
10 11 11 10 7 5 6 6 5 6 7 7 8 10 12 10 8 15 20 21 21 22 23 23 22 23 27 29 29 30 29 28 29 28 26 27 28 27 27 28 28 28 28 27 26 27 29 30 32 33 35 37 37 35 36 38 38 39 43 47 48 46 43 42 40 37 36 37 38 40 42 45 45 41 40 41 44 46 47 45 44 41 39 41 42
10 11 10 8 5 4 4 5 7 9 9 8 8 8 9 10 11 10 15 19 21 21 22 23 22 22 25 28 28 28 28 27 27 27 26 26 26 26 25 26 26 27 27 28 28 27 27 28 30 31 33 36 38 36 36 37 38 39 41 45 46 44 43 41 37 35 35 36 37 38 39 43 45 43 41 42 46 49 50 46 43 41 42 44 43
10 10 8 7 7 7 7 7 8 9 9 8 7 8 8 9 10 11 11 13 17 21 22 23 24 22 23 26 27 27 27 26 25 25 25 24 25 25 26 26 25 25 26 27 28 27 27 27 28 30 31 33 35 35 35 36 38 38 40 43 45 44 42 38 34 34 34 35 36 36 35 38 41 43 45 45 46 50 53 49 45 46 48 46 41
9 8 7 8 7 7 7 8 8 8 9 10 8 7 7 8 9 8 9 9 10 18 23 23 23 23 22 23 25 25 25 25 24 24 24 24 24 24 25 25 25 25 25 25 26 26 25 25 26 27 28 29 30 31 33 35 38 38 38 41 45 45 41 35 33 33 35 35 35 35 34 35 36 39 44 48 48 49 53 53 51 50 49 45 41
9 8 8 9 7 6 6 6 7 9 9 10 12 10 5 6 7 6 7 8 7 12 20 21 21 22 21 21 23 24 23 23 23 24 24 24 24 23 24 24 25 24 23 23 23 24 23 23 22 23 24 25 26 27 30 34 36 38 38 40 43 44 42 38 36 35 36 36 35 34 33 33 33 35 40 47 51 50 51 55 55 52 48 45 43
10 9 9 9 5 4 6 6 7 9 7 9 13 10 1 1 4 6 2 5 7 7 16 18 17 19 19 18 19 22 23 22 22 22 23 22 23 23 23 23 23 23 21 20 20 20 21 20 20 21 21 22 22 24 26 29 33 35 37 38 41 43 44 44 42 39 37 35 34 33 33 33 34 35 37 42 49 53 54 56 57 55 49 46 44
10 9 10 10 6 5 6 6 7 8 6 8 12 9 7 7 8 9 8 7 6 4 11 16 15 15 17 17 16 19 21 21 20 21 21 20 20 20 20 20 20 20 19 17 16 16 17 18 18 19 19 19 20 19 20 22 26 32 35 37 39 42 45 47 47 44 41 39 36 35 35 34 35 37 37 37 43 51 56 57 58 57 52 46 45
10 9 10 10 9 6 7 7 8 9 7 6 9 9 9 8 6 6 7 8 7 2 5 11 12 11 13 14 14 15 18 19 19 18 19 18 18 19 18 17 17 17 17 16 15 15 15 16 16 17 18 18 18 18 19 20 21 26 33 37 39 42 44 47 49 49 47 44 41 39 38 39 39 39 38 37 39 45 53 57 59 60 56 49 46
9 8 8 8 7 6 6 5 7 9 9 7 6 8 6 4 4 4 3 4 5 3 3 7 8 8 10 11 12 12 14 17 16 15 15 16 16 16 16 15 15 15 15 15 15 14 14 14 14 15 16 17 18 20 21 18 14 15 24 31 36 40 43 45 48 50 50 46 42 40 42 45 47 44 41 38 36 39 47 54 58 60 58 52 49
7 6 6 7 7 5 5 5 6 6 8 7 5 5 4 3 3 2 0 0 1 2 3 5 7 7 8 10 11 11 13 15 15 14 14 15 17 16 16 16 16 16 16 15 15 16 16 15 15 15 14 15 16 14 10 7 6 5 9 17 23 29 34 39 43 46 49 50 47 44 43 44 45 43 39 36 35 36 43 49 52 54 54 53 52
6 4 4 5 6 5 4 5 4 4 4 4 3 3 3 3 2 1 1 2 4 5 5 7 8 8 10 11 11 12 12 13 14 16 15 14 15 15 15 14 12 13 14 13 11 10 8 7 7 5 4 5 5 3 4 8 9 9 8 7 10 14 20 27 32 36 41 44 42 41 41 40 39 37 35 34 37 38 39 42 46 49 51 51 50
5 3 2 2 2 3 3 3 3 5 4 2 2 3 4 5 5 3 2 4 6 6 6 7 5 4 7 11 10 11 15 14 12 14 16 16 14 13 11 8 6 5 4 3 2 1 1 2 2 4 5 5 4 6 9 12 14 15 14 13 11 12 14 19 23 27 31 32 31 33 35 36 36 35 33 34 37 38 36 36 39 44 48 49 47
5 3 1 2 2 1 1 0 4 6 4 2 2 4 5 5 6 5 5 4 3 5 5 8 9 11 11 9 6 6 10 9 4 6 6 7 9 9 7 6 7 6 4 4 4 4 4 4 4 5 5 5 6 8 12 16 17 19 20 20 20 19 18 18 19 22 25 26 26 28 31 32 33 33 34 36 38 38 37 36 36 38 43 46 46
Wind_Direction
180 186 186 187 185 183 182 183 184 181 181 182 177 181 187 183 180 181 179 178 178 178 180 182 184 185 187 190 192 195 198 200 203 200 197 198 194 193 194 189 191 198 197 198 198 191 198 214 214 202 193 198 212 224 221 206 201 186 185 200 195 228 224 194 357 113 126 124 95 104 121 135 106 95 111 129 129 131 136 154 162 140 134 134 129
182 185 186 188 187 185 182 183 185 180 181 183 178 181 187 183 178 180 182 180 180 181 182 184 186 186 187 189 191 193 196 198 201 202 199 197 194 193 195 192 193 199 199 200 201 197 202 212 207 197 198 205 211 219 223 206 187 191 210 206 197 209 235 209 168 166 153 139 137 137 139 134 114 127 161 144 139 147 154 179 169 140 130 120 121
181 184 184 187 187 185 183 183 186 184 182 184 182 181 185 185 178 179 184 184 183 183 184 187 188 188 189 189 191 191 194 197 199 200 201 198 194 196 197 195 197 200 200 202 203 201 203 209 205 195 199 210 208 203 212 218 197 194 216 216 199 196 221 217 187 223 198 138 144 159 156 131 102 192 200 146 144 160 167 159 127 130 128 121 131
179 185 184 186 187 186 185 186 187 185 182 184 184 182 184 187 180 178 184 185 185 185 184 188 190 190 191 191 193 194 192 194 198 200 202 201 197 197 198 198 199 201 202 203 205 206 206 208 207 198 200 209 208 205 210 215 206 201 207 205 208 207 198 179 187 231 151 131 146 221 190 156 127 218 195 151 153 160 164 149 122 128 123 118 140
179 186 185 185 185 185 184 185 188 187 184 185 186 184 184 187 182 179 183 184 183 185 186 187 189 190 192 192 194 198 193 189 195 200 199 201 201 198 199 200 200 201 204 206 206 209 212 214 213 206 205 209 208 211 215 211 204 203 203 200 210 223 196 163 168 181 161 144 92 42 186 159 138 188 176 152 162 162 165 158 148 160 141 106 123
179 184 184 185 181 183 183 184 190 190 188 187 186 186 184 185 183 179 183 184 182 185 186 186 188 189 192 193 192 195 195 188 192 198 197 198 202 201 198 198 201 202 204 208 208 210 214 215 214 210 208 211 212 214 218 211 202 198 198 198 206 223 219 179 169 166 189 238 302 360 249 170 127 164 160 41 168 170 169 161 165 177 162 146 132
179 184 184 184 181 184 186 186 193 193 189 186 185 186 184 183 184 180 182 185 182 184 185 185 187 188 191 195 193 193 195 194 195 198 199 198 201 203 197 195 201 203 203 208 209 210 217 216 210 210 208 209 211 208 209 205 201 202 199 199 204 210 218 208 178 161 174 222 227 238 249 227 43 116 133 128 160 266 206 169 176 182 168 171 182
178 187 187 185 184 187 188 188 194 195 189 186 185 186 185 183 184 182 182 186 184 184 185 185 187 188 191 194 196 196 196 199 197 198 202 201 200 203 198 195 200 203 203 207 209 209 218 215 206 207 208 209 212 206 203 203 205 207 199 196 202 201 202 212 202 172 171 191 203 221 239 220 309 73 134 149 160 173 256 211 195 187 183 184 192
178 186 185 184 188 189 189 188 192 194 189 187 186 185 184 183 183 183 183 186 186 185 185 186 188 189 191 193 196 197 197 199 197 197 201 201 201 202 200 198 199 202 203 206 210 208 213 214 207 206 206 209 216 209 203 204 205 203 196 195 198 199 198 203 214 187 177 188 190 207 240 203 187 190 157 172 216 175 171 227 207 186 190 192 196
181 187 184 186 192 190 190 188 190 195 192 188 187 184 182 181 181 183 184 185 187 187 186 187 189 190 192 194 195 196 196 197 196 196 198 201 205 203 201 200 197 199 202 205 209 209 210 213 210 209 206 207 212 212 209 206 203 200 197 198 196 197 199 200 208 201 196 200 184 193 223 205 189 198 179 188 219 226 184 218 194 183 189 178 186
184 189 184 187 192 191 192 190 193 200 195 189 187 184 181 180 180 183 185 186 187 188 187 188 190 192 193 194 195 195 195 195 195 195 195 200 207 203 201 202 197 196 200 203 207 208 208 210 210 210 208 207 209 211 213 208 204 203 199 199 198 197 200 199 199 203 214 217 185 187 204 205 207 214 202 199 200 189 212 235 191 186 194 170 173
183 188 185 181 182 183 188 187 194 204 197 189 189 185 182 181 181 183 185 186 187 188 188 188 190 193 194 195 197 196 195 195 196 197 195 198 204 204 202 204 203 198 196 201 205 205 206 207 209 209 208 208 209 210 212 209 206 204 199 199 199 198 202 201 195 196 211 217 204 196 194 201 215 218 223 225 207 185 201 254 213 177 182 169 174
183 186 184 178 175 177 185 186 193 201 196 189 189 185 182 182 181 183 185 186 187 188 189 189 191 194 195 196 197 197 197 198 199 200 198 198 201 204 204 203 205 202 198 200 203 203 205 206 207 209 209 211 210 209 211 210 206 201 199 200 201 199 201 203 198 196 202 208 214 208 191 203 217 212 222 227 205 185 193 279 230 186 164 161 173
181 181 182 180 179 181 190 194 196 200 196 190 189 185 183 183 182 183 185 186 187 187 189 190 192 195 196 197 198 198 198 199 201 202 202 201 201 203 206 204 203 205 204 203 204 202 204 208 209 208 209 211 210 210 211 209 206 203 201 201 202 202 201 203 203 200 200 204 216 221 206 210 218 208 219 228 203 182 185 232 237 206 198 170 169
180 181 182 183 182 182 194 200 197 197 196 192 190 187 184 183 183 183 184 186 187 187 189 190 192 195 196 198 199 200 200 202 204 205 205 206 205 204 206 207 205 207 208 207 205 203 204 208 211 210 209 209 209 211 211 209 207 205 203 202 202 203 202 203 205 203 204 203 210 226 227 224 222 210 211 223 218 192 183 206 221 207 211 166 152
177 181 180 180 175 174 195 208 201 196 197 195 192 188 185 184 184 184 185 185 187 188 189 191 193 194 196 198 199 201 202 203 205 207 208 208 208 207 208 209 208 208 209 209 207 206 206 208 210 210 209 209 209 210 209 208 208 206 205 204 203 204 202 203 205 205 209 208 206 218 231 232 227 220 212 215 225 214 190 197 203 195 189 177 158
175 178 180 183 180 176 194 211 208 199 197 196 193 190 186 184 184 185 185 185 186 188 189 190 192 193 196 198 200 201 201 202 205 207 208 209 209 210 210 210 211 210 209 209 208 208 208 207 207 208 208 208 208 209 207 206 207 207 206 206 205 204 204 203 205 208 210 211 209 211 224 233 232 229 221 215 219 221 212 197 190 192 201 206 189
171 169 176 183 184 184 192 204 206 199 197 196 192 190 187 185 184 184 185 186 186 187 188 190 191 193 196 198 200 201 201 203 205 207 208 208 209 210 211 211 211 211 209 209 208 208 208 208 206 206 207 207 206 207 207 205 206 206 206 209 207 205 207 205 205 209 211 211 212 209 216 228 233 232 223 218 217 215 216 209 189 196 207 214 222
166 164 173 178 180 186 192 200 202 196 196 196 191 189 188 186 186 186 186 186 186 187 189 190 190 191 194 198 200 201 202 203 205 207 207 208 209 209 210 210 210 210 211 210 207 206 207 208 207 206 206 207 206 206 206 204 205 207 207 210 210 207 208 208 206 209 211 212 213 211 212 220 226 228 221 219 222 217 213 212 207 209 210 216 224
163 165 173 176 182 189 192 197 201 198 195 195 193 191 190 189 187 188 188 187 188 188 189 190 190 190 193 197 200 200 202 204 205 206 207 207 209 208 209 210 209 209 210 210 209 206 205 206 206 206 205 206 206 206 206 204 204 206 207 208 210 209 209 209 208 208 209 211 213 212 213 214 217 221 219 217 221 219 212 209 209 213 212 214 219
170 169 173 178 184 188 189 190 197 204 200 195 196 194 192 192 190 189 190 189 189 189 189 191 192 193 195 196 198 199 200 202 204 206 207 207 208 209 209 209 209 209 209 209 210 208 205 204 204 205 206 206 206 205 205 205 204 205 206 207 209 210 211 210 209 209 209 211 213 212 213 213 211 214 216 215 217 217 211 208 209 213 213 211 212
180 171 171 175 179 180 178 174 186 210 207 198 198 196 193 194 192 191 191 190 191 191 190 192 193 195 196 195 196 197 199 201 202 205 206 207 208 208 208 208 209 210 209 209 210 209 206 204 203 205 206 206 207 207 205 204 205 205 205 206 207 208 210 210 210 211 210 210 212 212 212 214 211 210 212 212 213 214 210 207 209 212 212 212 211
177 169 170 168 168 172 168 165 183 210 210 199 198 199 196 196 194 193 193 192 192 192 191 193 195 196 197 196 196 197 198 200 201 203 205 205 207 208 208 208 209 209 210 209 209 208 207 205 205 206 207 208 209 208 207 206 206 207 206 206 207 207 209 210 210 212 212 210 211 211 211 212 211 209 210 210 209 210 210 207 208 211 212 211 211
175 167 161 154 158 168 169 171 188 205 204 195 198 200 198 197 196 195 195 192 192 193 192 192 195 196 195 196 197 196 197 198 198 201 203 203 205 207 207 209 209 209 209 209 209 208 207 207 206 207 207 209 210 209 208 208 208 209 209 208 207 207 208 210 211 213 213 211 210 210 211 211 211 210 210 210 208 208 209 207 207 209 210 210 210
170 155 140 145 157 168 175 184 194 199 196 193 197 201 199 199 199 197 196 193 192 193 193 191 192 195 195 196 197 196 196 197 198 200 202 203 204 205 205 207 208 208 207 208 208 207 207 207 207 207 208 209 210 209 208 209 210 211 211 210 210 209 208 210 213 214 215 214 212 211 211 211 211 211 210 211 210 209 209 208 207 207 208 209 209
163 155 149 155 165 174 178 184 189 192 195 193 195 201 202 201 201 200 197 195 194 194 193 191 191 193 195 196 196 197 198 198 200 202 203 204 204 204 204 204 205 207 207 207 208 207 207 208 208 209 210 210 210 210 209 209 210 211 212 212 212 212 211 211 213 215 216 216 215 213 212 211 211 211 211 211 212 211 210 209 207 207 207 206 208
147 143 146 152 161 172 178 182 185 189 195 196 195 200 204 201 200 202 200 197 196 194 193 192 192 194 196 196 197 199 200 201 202 204 205 205 205 205 204 204 205 206 207 206 207 208 208 208 209 210 211 211 211 211 211 210 210 211 212 212 212 213 213 212 213 215 216 217 217 216 214 213 213 213 213 213 212 211 212 211 209 207 206 204 206
125 120 129 148 162 171 178 183 185 188 193 198 199 200 203 202 199 201 203 201 197 195 194 192 192 195 197 197 199 200 201 203 204 205 206 206 207 207 207 206 205 205 207 207 207 208 209 209 210 211 211 212 212 212 211 211 210 211 212 212 212 212 213 213 213 214 216 217 217 217 217 216 215 216 215 214 213 212 210 210 210 207 205 204 203
122 128 138 159 171 168 172 177 180 185 192 199 202 199 200 202 199 200 204 204 199 195 195 194 193 195 197 198 199 201 202 203 204 205 206 207 208 209 208 207 207 206 207 209 209 208 208 209 211 212 212 213 213 213 212 211 210 211 212 213 213 212 213 214 214 214 215 216 217 217 218 218 217 217 217 216 216 214 211 209 208 206 205 204 203
134 145 155 157 152 143 150 163 174 185 192 199 203 198 197 201 202 201 204 206 202 196 195 196 195 195 197 197 199 201 202 203 204 205 206 207 208 209 209 209 209 208 207 208 210 209 208 209 211 212 213 213 215 215 214 214 213 212 212 213 214 214 214 214 215 215 215 216 217 218 218 219 218 217 218 217 216 216 215 213 210 207 205 204 202
138 149 158 151 142 134 143 164 180 196 197 198 202 199 199 203 204 204 204 206 207 199 194 198 199 196 195 196 198 201 202 203 205 206 206 207 207 208 209 210 209 210 208 207 208 210 210 209 210 211 212 213 216 218 217 216 215 214 213 213 215 215 214 215 217 216 216 217 218 219 220 220 219 219 219 218 216 217 217 216 214 212 210 207 204
126 130 140 147 156 160 168 180 190 203 206 201 200 201 203 206 206 204 203 206 209 205 196 197 200 197 195 197 198 199 201 203 204 206 206 207 207 208 209 210 210 210 209 207 207 210 211 211 210 211 213 215 217 218 218 217 216 216 215 214 215 216 215 216 218 218 218 218 218 219 221 221 222 222 221 219 218 217 218 217 216 216 215 213 210
99 116 139 153 168 172 177 187 189 195 204 205 204 204 205 209 208 205 203 205 209 209 201 195 198 198 195 196 198 199 201 203 203 205 207 207 207 208 209 209 210 210 209 208 208 209 211 212 212 212 214 216 219 219 218 217 217 217 216 215 216 217 217 218 219 219 220 220 220 220 220 222 224 224 223 221 219 218 218 217 217 217 217 217 216
68 130 136 118 130 152 161 175 180 187 197 200 202 206 206 209 212 208 205 205 206 210 207 196 195 198 196 195 197 199 201 203 204 204 206 207 208 209 209 210 210 209 209 210 210 210 212 213 215 216 216 218 220 221 219 218 218 217 216 216 217 218 219 220 221 221 221 222 222 221 221 222 222 222 223 221 218 217 216 215 215 215 216 217 216
180 152 77 62 58 74 86 80 109 201 215 197 196 201 203 207 213 211 208 207 204 208 211 200 192 195 196 194 196 199 201 204 205 204 205 207 208 209 209 209 209 209 210 211 211 211 213 214 216 218 219 220 222 223 222 221 220 218 217 217 218 220 222 223 223 223 223 224 224 224 223 223 222 222 223 221 217 215 214 213 213 215 216 217 216
96 89 73 59 48 40 34 20 4 342 312 253 210 204 202 205 211 212 209 208 205 205 209 204 194 193 195 194 195 197 200 203 204 205 207 208 208 209 208 208 208 210 212 212 213 214 215 216 217 218 222 225 226 225 225 224 222 220 218 218 219 220 223 225 226 225 224 225 225 225 225 225 224 223 224 222 218 214 212 212 212 214 215 216 216
47 65 67 59 48 37 29 9 345 317 285 277 259 235 218 204 202 207 209 206 205 206 208 206 198 194 195 195 195 197 199 201 203 205 207 208 208 208 207 207 208 210 212 213 214 217 218 218 219 220 223 227 229 228 227 227 225 221 218 218 218 219 223 227 229 227 226 226 226 226 225 226 226 225 224 224 219 213 210 211 212 213 214 216 217
36 52 59 51 37 17 359 328 303 294 283 278 274 275 280 242 200 198 201 203 207 208 207 206 202 196 196 196 196 197 198 200 203 205 206 206 206 207 208 208 208 210 214 215 216 219 220 221 222 222 223 227 230 230 230 231 229 224 219 218 218 219 222 228 230 230 229 229 229 228 227 226 227 225 224 224 220 213 210 211 212 212 211 214 217
31 47 45 28 8 340 318 301 307 330 318 295 280 275 286 293 247 203 194 198 207 208 206 206 203 198 196 195 196 197 198 200 202 203 203 203 204 206 207 208 209 211 216 219 219 220 221 221 223 224 225 227 229 230 231 232 231 227 222 220 218 218 222 227 230 230 232 233 233 233 230 229 228 226 223 224 222 215 212 212 213 211 211 215 216
17 34 30 6 354 355 337 341 7 4 339 319 314 296 275 280 284 249 209 201 205 205 204 204 202 197 194 195 197 197 197 200 202 203 203 203 203 205 206 206 209 212 216 219 221 221 221 222 223 225 226 227 228 229 231 232 232 231 227 222 218 217 221 226 227 230 232 235 236 237 236 234 232 228 224 225 224 219 215 214 213 211 213 217 216
0 10 18 11 12 20 10 358 0 351 333 322 312 300 285 279 283 271 242 219 206 200 200 201 201 198 194 193 197 198 198 200 203 204 205 205 204 204 205 206 208 212 213 215 219 222 223 223 224 225 227 230 229 229 230 232 233 233 230 224 220 220 223 225 226 229 232 236 237 238 239 240 237 232 228 226 226 224 219 216 215 217 219 219 215
353 356 28 28 13 12 1 347 348 347 343 341 322 292 278 280 283 272 254 247 219 196 192 193 196 198 196 192 194 198 199 199 202 203 204 205 206 206 207 207 209 212 214 214 217 221 225 228 228 228 230 232 233 232 231 233 234 235 233 229 225 225 226 225 227 230 232 235 238 238 239 243 242 239 233 229 229 227 222 218 219 222 222 220 216
347 352 23 18 2 8 0 350 359 356 343 340 331 312 267 253 281 281 246 250 245 198 186 186 190 195 198 194 190 194 198 199 201 202 203 205 207 207 207 208 209 211 215 216 216 218 224 230 235 236 236 237 236 236 236 235 236 236 235 234 232 231 229 227 227 232 235 236 239 241 242 245 246 245 240 234 232 230 225 221 222 223 223 220 216
340 346 6 357 347 17 7 358 10 4 350 340 333 323 272 145 356 3 343 268 267 208 180 179 183 190 196 197 192 191 195 198 200 202 204 206 206 207 208 209 209 211 214 216 217 217 220 227 235 240 244 244 242 242 241 240 239 239 237 237 237 235 233 230 229 233 237 238 241 243 245 247 248 249 247 242 236 233 230 226 223 223 222 219 215
340 351 4 350 338 9 14 5 3 3 2 349 344 358 54 55 23 18 21 1 324 232 179 174 179 187 193 200 198 192 191 194 198 202 205 205 205 206 209 209 208 210 213 217 219 219 219 224 231 237 244 249 250 251 251 248 246 244 242 241 240 238 235 233 231 233 237 240 240 241 244 247 249 249 250 248 241 235 233 230 226 223 221 218 214
337 349 357 342 332 351 10 5 356 360 9 2 360 21 47 45 21 9 12 11 1 350 162 163 169 179 187 196 203 197 189 190 198 204 205 205 206 206 208 209 208 207 211 217 221 225 227 229 232 236 240 247 253 258 262 264 259 250 245 243 241 239 238 235 234 235 238 240 239 239 242 245 247 248 248 248 244 239 236 233 228 223 220 218 215
336 348 347 334 334 347 356 3 5 4 4 8 17 24 34 42 30 15 9 9 6 18 118 142 156 168 179 192 203 198 184 184 195 202 201 201 205 209 208 206 207 208 210 214 217 223 231 235 237 238 238 241 246 251 258 270 275 261 252 248 243 240 238 236 235 236 238 239 239 240 241 243 245 248 249 247 246 244 239 234 228 223 220 218 217
337 355 350 340 343 347 353 10 17 5 357 7 21 17 19 40 35 16 47 103 193 188 165 157 167 176 180 189 203 199 184 182 190 197 202 201 201 207 210 207 209 215 217 216 216 219 226 232 237 241 240 239 240 241 253 292 327 316 277 262 255 252 247 243 242 243 243 242 241 241 243 245 245 246 246 245 242 240 236 232 228 224 222 221 220
320 344 356 352 345 344 9 22 9 342 350 16 26 20 35 55 57 83 142 145 163 181 188 181 182 191 188 185 195 197 191 189 188 191 204 209 199 200 207 204 202 212 218 218 215 213 218 228 237 257 282 271 259 279 338 338 328 324 322 300 274 267 262 257 257 257 253 248 244 243 244 246 246 244 242 241 238 236 233 230 226 224 223 224 223
299 305 337 2 328 332 19 26 310 284 262 216 143 94 75 56 44 51 102 132 153 176 181 162 143 143 166 174 186 189 189 197 195 187 198 208 201 194 197 180 147 153 191 209 191 103 33 349 6 18 6 353 342 330 319 312 308 308 310 308 295 283 273 268 268 267 262 255 250 247 247 247 245 242 239 237 237 236 233 230 227 224 223 224 224
315 305 292 178 186 198 111 283 301 303 282 214 115 77 79 83 73 59 56 80 143 173 147 111 85 70 82 92 77 107 149 159 117 96 139 174 175 171 164 128 99 84 65 45 33 26 13 1 15 25 4 334 325 319 310 306 307 307 305 305 303 298 291 282 274 270 266 259 251 250 252 252 248 244 240 238 238 238 236 233 229 226 224 225 226